FW7127 Weather Reports


time (UTC)temp
F
wind
direction
speed
knots
gust
knots
rain 1hr
in
rain 24hr
in
rain mn
in
humidity
%
barometer
mb
20260506213202 86 336 0.0 2.6 0.00 0.00 0.00 75 1010.4
20260506212659 87 30 0.0 1.7 0.00 0.00 0.00 75 1010.4
20260506212154 87 85 0.9 3.5 0.00 0.00 0.00 73 1010.4
20260506211650 88 330 0.0 3.5 0.00 0.00 0.00 74 1010.4
20260506211147 89 242 0.9 2.6 0.00 0.00 0.00 74 1010.3
20260506210644 87 338 0.0 3.5 0.00 0.00 0.00 78 1010.4
20260506210140 85 278 2.6 4.3 0.00 0.00 0.00 78 1010.5
20260506205638 85 324 3.5 6.1 0.00 0.00 0.00 77 1010.4
20260506205132 86 295 2.6 3.5 0.00 0.00 0.00 78 1010.6
20260506204631 86 328 0.0 3.5 0.00 0.00 0.00 79 1010.5
20260506204127 84 311 2.6 5.2 0.00 0.00 0.00 79 1010.7
20260506203626 86 204 0.9 4.3 0.00 0.00 0.00 76 1010.7
20260506203122 86 104 2.6 4.3 0.00 0.00 0.00 75 1010.7
20260506202620 87 190 0.9 2.6 0.00 0.00 0.00 75 1010.7
20260506202116 86 243 0.9 5.2 0.00 0.00 0.00 76 1010.7
20260506201613 87 233 0.9 2.6 0.00 0.00 0.00 76 1011.0
20260506201109 86 332 1.7 4.3 0.00 0.00 0.00 76 1011.0
20260506200606 86 15 0.0 2.6 0.00 0.00 0.00 77 1010.9
20260506195559 84 312 2.6 4.3 0.00 0.00 0.00 79 1011.1
20260506195056 82 331 1.7 2.6 0.00 0.00 0.00 80 1011.0
20260506194554 81 264 1.7 2.6 0.00 0.00 0.00 80 1011.0
20260506194049 81 53 1.7 3.5 0.00 0.00 0.00 81 1011.1
20260506193547 80 328 3.5 5.2 0.00 0.00 0.00 82 1011.2
20260506193045 79 264 1.7 6.1 0.00 0.00 0.00 86 1011.0
20260506192541 78 324 2.6 7.0 0.00 0.00 0.00 86 1011.2
20260506192037 77 28 0.0 5.2 0.00 0.00 0.00 87 1011.4
20260506191534 76 320 3.5 7.8 0.00 0.00 0.00 87 1011.4
20260506191030 76 326 2.6 7.8 0.00 0.00 0.00 87 1011.5
20260506190527 75 314 3.5 9.6 0.00 0.00 0.00 87 1011.3
20260506190024 76 346 2.6 7.0 0.00 0.00 0.00 86 1011.5
20260506185521 77 353 4.3 7.8 0.00 0.00 0.00 84 1011.5
20260506185018 82 337 3.5 4.3 0.00 0.00 0.00 83 1011.3
20260506184515 83 258 1.7 3.5 0.00 0.00 0.00 81 1011.3
20260506184013 82 118 1.7 4.3 0.00 0.00 0.00 82 1011.4
20260506183508 82 88 1.7 4.3 0.00 0.00 0.00 83 1011.4
20260506183005 82 119 2.6 4.3 0.00 0.00 0.00 84 1011.4
20260506182502 81 96 3.5 5.2 0.00 0.00 0.00 85 1011.4
20260506181959 81 124 4.3 6.1 0.00 0.00 0.00 85 1011.4
20260506181457 81 97 6.1 8.7 0.00 0.00 0.00 85 1011.6
20260506180954 81 139 3.5 6.1 0.00 0.00 0.00 85 1011.6
20260506180450 81 134 3.5 6.1 0.00 0.00 0.00 83 1011.7
20260506175947 82 123 1.7 6.1 0.00 0.00 0.00 85 1011.8
20260506175444 82 147 2.6 5.2 0.00 0.00 0.00 84 1012.0
20260506174940 82 135 2.6 7.0 0.00 0.00 0.00 84 1012.0
20260506174438 83 89 0.0 1.7 0.00 0.00 0.00 85 1012.2
20260506173934 83 175 0.0 3.5 0.00 0.00 0.00 85 1011.9
20260506173432 83 100 0.9 2.6 0.00 0.00 0.00 85 1012.3
20260506172928 82 3 0.0 3.5 0.00 0.00 0.00 86 1012.3
20260506172425 82 104 4.3 7.8 0.00 0.00 0.00 85 1012.7
20260506171917 82 336 0.0 1.7 0.00 0.00 0.00 87 1012.6
20260506171414 81 217 0.0 1.7 0.00 0.00 0.00 87 1012.7
20260506170912 81 352 0.0 1.7 0.00 0.00 0.00 88 1012.7
20260506170407 80 268 0.9 3.5 0.00 0.00 0.00 88 1012.8
20260506165901 80 113 6.1 6.1 0.00 0.00 0.00 88 1012.8
20260506165359 80 196 0.0 0.9 0.00 0.00 0.00 90 1012.9
20260506164855 80 230 0.0 0.9 0.00 0.00 0.00 90 1013.1
20260506164351 80 321 0.0 1.7 0.00 0.00 0.00 90 1012.9
20260506163850 79 252 0.0 2.6 0.00 0.00 0.00 91 1012.9
20260506163344 79 217 0.0 1.7 0.00 0.00 0.00 91 1013.0
20260506162839 79 229 0.0 0.9 0.00 0.00 0.00 91 1013.0
20260506162337 79 31 0.0 2.6 0.00 0.00 0.00 90 1012.8
20260506161834 80 235 0.0 0.9 0.00 0.00 0.00 91 1012.8
20260506161331 79 325 0.0 2.6 0.00 0.00 0.00 91 1012.6
20260506160824 79 256 0.0 2.6 0.00 0.00 0.00 91 1012.5
20260506160320 79 172 0.0 0.9 0.00 0.00 0.00 91 1012.4
20260506155818 79 74 0.9 2.6 0.00 0.00 0.00 92 1012.3
20260506155314 78 213 2.6 3.5 0.00 0.00 0.00 92 1012.2
20260506153427 78 116 3.5 5.2 0.00 0.00 0.00 92 1011.9
20260506152925 78 161 2.6 4.3 0.00 0.00 0.00 92 1011.9
20260506152421 78 165 0.9 2.6 0.00 0.00 0.00 92 1011.9
20260506151920 78 106 1.7 3.5 0.00 0.00 0.00 92 1011.8
20260506151416 78 122 0.9 2.6 0.00 0.00 0.00 93 1011.9
20260506150914 77 101 1.7 2.6 0.00 0.00 0.00 93 1011.8
20260506150410 77 107 2.6 3.5 0.00 0.00 0.00 93 1012.1
20260506145907 77 104 1.7 2.6 0.00 0.00 0.00 93 1012.1
20260506145403 77 117 3.5 3.5 0.00 0.00 0.00 93 1011.9
20260506144901 77 131 1.7 2.6 0.00 0.00 0.00 94 1011.8
20260506144357 77 132 0.9 2.6 0.00 0.00 0.00 94 1011.6
20260506143856 77 113 3.5 5.2 0.00 0.00 0.00 94 1011.5
20260506143353 77 145 1.7 3.5 0.00 0.00 0.00 94 1011.6
20260506142851 77 162 1.7 3.5 0.00 0.00 0.00 95 1011.5
20260506142348 77 160 2.6 4.3 0.00 0.00 0.00 95 1011.4
20260506141846 77 130 0.0 1.7 0.00 0.00 0.00 95 1011.3
20260506141344 76 138 1.7 3.5 0.00 0.00 0.00 95 1011.0
20260506140842 76 121 2.6 4.3 0.00 0.00 0.00 95 1011.1
20260506140339 76 107 2.6 4.3 0.00 0.00 0.00 96 1011.0
20260506135836 76 106 2.6 2.6 0.00 0.00 0.00 96 1011.1
20260506135332 76 99 3.5 4.3 0.00 0.00 0.00 96 1010.8
20260506134828 76 171 0.9 2.6 0.00 0.00 0.00 96 1010.9
20260506134325 76 131 3.5 3.5 0.00 0.00 0.00 96 1011.0
20260506133822 76 125 2.6 4.3 0.00 0.00 0.00 96 1010.9
20260506133319 75 128 2.6 4.3 0.00 0.00 0.00 96 1011.1
20260506132816 75 105 2.6 4.3 0.00 0.00 0.00 96 1011.2
20260506132313 75 163 1.7 4.3 0.00 0.00 0.00 96 1011.1
20260506131811 75 136 2.6 3.5 0.00 0.00 0.00 96 1011.2
20260506131307 75 110 2.6 4.3 0.00 0.00 0.00 96 1011.2
20260506130804 75 162 0.9 5.2 0.00 0.00 0.00 96 1011.2
20260506130301 75 113 2.6 3.5 0.00 0.00 0.00 96 1011.2
20260506125759 75 159 1.7 3.5 0.00 0.00 0.00 96 1010.9
20260506125257 75 115 2.6 3.5 0.00 0.00 0.00 96 1011.1
20260506124755 75 119 2.6 3.5 0.00 0.00 0.00 96 1011.1
20260506124252 75 186 0.9 2.6 0.00 0.00 0.00 96 1011.1
20260506123749 75 170 1.7 6.1 0.00 0.00 0.00 96 1011.1
20260506123248 75 169 4.3 5.2 0.00 0.00 0.00 96 1011.0
20260506122744 75 175 3.5 5.2 0.00 0.00 0.00 96 1011.1
20260506122241 75 169 4.3 6.1 0.00 0.00 0.00 96 1011.0
20260506121740 75 201 3.5 5.2 0.00 0.00 0.00 96 1010.8
20260506121236 75 176 2.6 4.3 0.00 0.00 0.00 96 1010.8
20260506120733 75 163 3.5 6.1 0.00 0.00 0.00 96 1010.8
20260506120231 75 171 2.6 4.3 0.00 0.00 0.00 96 1010.7
20260506115729 75 169 5.2 6.1 0.00 0.00 0.00 96 1010.8
20260506115227 75 186 2.6 7.8 0.00 0.00 0.00 96 1010.7
20260506114724 75 186 3.5 7.0 0.00 0.00 0.00 96 1010.7
20260506114221 75 177 2.6 6.1 0.00 0.00 0.00 96 1010.6
20260506113720 75 162 7.8 8.7 0.00 0.00 0.00 96 1010.5
20260506113217 75 174 7.0 9.6 0.00 0.00 0.00 96 1010.5
20260506112713 75 165 6.1 8.7 0.00 0.00 0.00 96 1010.5
20260506112211 75 182 3.5 9.6 0.00 0.00 0.00 96 1010.3
20260506111708 75 168 6.1 10.4 0.00 0.00 0.00 96 1010.5
20260506111206 75 196 3.5 6.1 0.00 0.00 0.00 96 1010.2
20260506110703 75 188 4.3 10.4 0.00 0.00 0.00 96 1010.3
20260506110201 75 177 3.5 7.8 0.00 0.00 0.00 96 1010.4
20260506105657 75 173 5.2 8.7 0.00 0.00 0.00 96 1010.3
20260506105154 75 173 6.1 10.4 0.00 0.00 0.00 96 1010.1
20260506104652 75 178 8.7 11.3 0.00 0.00 0.00 96 1010.0
20260506104149 75 162 7.0 8.7 0.00 0.00 0.00 96 1010.2
20260506103646 75 193 3.5 10.4 0.00 0.00 0.00 96 1010.0
20260506103143 75 167 5.2 11.3 0.00 0.00 0.00 96 1009.8
20260506102642 75 158 4.3 10.4 0.00 0.00 0.00 96 1009.7
20260506102138 75 185 4.3 10.4 0.00 0.00 0.00 96 1009.6
20260506101635 75 171 7.8 13.0 0.00 0.00 0.00 96 1009.2
20260506101132 75 162 8.7 14.8 0.00 0.00 0.00 97 1009.4
20260506100631 75 177 7.0 11.3 0.00 0.00 0.00 97 1009.4
20260506100128 75 168 8.7 13.0 0.00 0.00 0.00 97 1009.6
20260506095627 75 165 8.7 8.7 0.00 0.00 0.00 97 1009.6
20260506095123 75 189 7.8 9.6 0.00 0.00 0.00 97 1009.7
20260506094620 75 187 7.0 9.6 0.00 0.00 0.00 97 1009.5
20260506094118 75 194 9.6 9.6 0.00 0.00 0.00 97 1009.6
20260506093616 75 185 6.1 9.6 0.00 0.00 0.00 97 1009.7
20260506093113 75 177 6.1 9.6 0.00 0.00 0.00 97 1009.6
20260506092611 75 171 6.1 10.4 0.00 0.00 0.00 97 1009.5
20260506092108 75 161 6.1 13.0 0.00 0.00 0.00 97 1009.4
20260506091606 75 179 7.8 12.2 0.00 0.00 0.00 97 1009.6
20260506091103 75 173 10.4 10.4 0.00 0.00 0.00 97 1009.4
20260506090601 75 166 4.3 9.6 0.00 0.00 0.00 97 1009.4
20260506090057 75 167 5.2 10.4 0.00 0.00 0.00 97 1009.5
20260506085554 75 171 7.0 11.3 0.00 0.00 0.00 96 1009.5
20260506085050 75 162 7.8 12.2 0.00 0.00 0.00 96 1009.3
20260506084547 75 190 6.1 13.0 0.00 0.00 0.00 96 1009.4
20260506084043 75 165 10.4 10.4 0.00 0.00 0.00 96 1009.5
20260506083541 75 164 4.3 10.4 0.00 0.00 0.00 96 1009.5
20260506083038 75 165 4.3 9.6 0.00 0.00 0.00 96 1009.5
20260506082535 75 173 9.6 11.3 0.00 0.00 0.00 96 1009.6
20260506082030 75 188 5.2 10.4 0.00 0.00 0.00 96 1009.6
20260506081529 75 168 7.0 11.3 0.00 0.00 0.00 96 1009.6
20260506081026 75 170 5.2 10.4 0.00 0.00 0.00 96 1009.5
20260506080524 75 182 6.1 11.3 0.00 0.00 0.00 96 1009.7
20260506073507 75 165 7.8 13.0 0.00 0.00 0.00 95 1010.1
20260506073004 75 176 6.1 15.6 0.00 0.00 0.00 95 1009.8
20260506072501 75 173 8.7 10.4 0.00 0.00 0.00 95 1010.0
20260506071959 75 163 7.8 10.4 0.00 0.00 0.00 95 1010.3
20260506071457 75 158 7.0 13.0 0.00 0.00 0.00 95 1010.3
20260506070953 75 169 6.1 9.6 0.00 0.00 0.00 95 1010.4
20260506070450 75 170 7.8 10.4 0.00 0.00 0.00 95 1010.3
20260506062428 75 169 6.1 12.2 0.00 0.00 0.00 95 1010.6
20260506061924 75 174 5.2 8.7 0.00 0.00 0.00 95 1010.7
20260506061420 75 153 4.3 8.7 0.00 0.00 0.00 95 1010.6
20260506060918 75 180 6.1 10.4 0.00 0.00 0.00 95 1010.5
20260506060416 75 174 7.8 9.6 0.00 0.00 0.00 95 1010.6
20260506051348 76 173 7.8 9.6 0.00 0.00 0.00 94 1010.7
20260506050845 76 195 4.3 8.7 0.00 0.00 0.00 94 1010.8
20260506050343 76 167 7.8 9.6 0.00 0.00 0.00 93 1010.7
20260506044833 76 178 4.3 8.7 0.00 0.00 0.00 93 1010.7
20260506044331 76 177 3.5 7.0 0.00 0.00 0.00 93 1010.7
20260506043828 76 193 3.5 7.8 0.00 0.00 0.00 93 1010.8
20260506043325 76 166 5.2 11.3 0.00 0.00 0.00 93 1010.9
20260506042824 76 167 6.1 9.6 0.00 0.00 0.00 93 1010.6
20260506042322 76 167 6.1 9.6 0.00 0.00 0.00 93 1010.5
20260506041821 76 161 4.3 7.8 0.00 0.00 0.00 92 1010.6
20260506041317 76 159 6.1 10.4 0.00 0.00 0.00 92 1010.3
20260506040814 76 185 6.1 11.3 0.00 0.00 0.00 92 1010.3
20260506040312 76 167 4.3 9.6 0.00 0.00 0.00 92 1010.3
20260506035808 76 172 6.1 13.0 0.00 0.00 0.00 92 1010.1
20260506035306 76 166 9.6 13.0 0.00 0.00 0.00 92 1010.4
20260506034803 76 168 7.8 9.6 0.00 0.00 0.00 92 1010.4
20260506034300 76 168 7.8 13.0 0.00 0.00 0.00 92 1010.3
20260506033756 76 180 4.3 8.7 0.00 0.00 0.00 92 1010.3
20260506033253 77 185 8.7 11.3 0.00 0.00 0.00 92 1010.1
20260506032750 77 170 7.0 9.6 0.00 0.00 0.00 92 1010.0
20260506032247 77 177 7.0 9.6 0.00 0.00 0.00 92 1010.1
20260506031744 77 167 4.3 9.6 0.00 0.00 0.00 91 1010.0
20260506031241 77 169 3.5 7.0 0.00 0.00 0.00 91 1009.9
20260506030739 77 171 8.7 8.7 0.00 0.00 0.00 91 1009.9
20260506030237 77 168 5.2 11.3 0.00 0.00 0.00 91 1010.0
20260506025733 77 168 5.2 9.6 0.00 0.00 0.00 91 1009.9
20260506025230 77 174 5.2 7.8 0.00 0.00 0.00 91 1009.7
20260506024727 77 186 3.5 9.6 0.00 0.00 0.00 91 1009.8
20260506024223 77 162 7.0 8.7 0.00 0.00 0.00 91 1009.7
20260506023720 77 169 4.3 8.7 0.00 0.00 0.00 90 1009.8
20260506023217 77 165 8.7 13.0 0.00 0.00 0.00 90 1009.7
20260506022714 77 165 6.1 8.7 0.00 0.00 0.00 90 1009.4
20260506022211 77 193 3.5 10.4 0.00 0.00 0.00 90 1009.4
20260506021709 77 163 7.8 10.4 0.00 0.00 0.00 90 1009.3
20260506021206 77 161 4.3 8.7 0.00 0.00 0.00 90 1009.4
20260506020703 77 170 4.3 7.8 0.00 0.00 0.00 90 1009.3
20260506020201 77 175 7.0 7.0 0.00 0.00 0.00 89 1009.3
20260506015658 77 176 3.5 9.6 0.00 0.00 0.00 89 1008.9
20260506015155 77 177 4.3 9.6 0.00 0.00 0.00 89 1009.3
20260506014652 77 172 3.5 7.8 0.00 0.00 0.00 89 1008.9
20260506014148 77 168 4.3 9.6 0.00 0.00 0.00 89 1008.7
20260506013646 77 176 4.3 7.8 0.00 0.00 0.00 89 1008.8
20260506013143 77 180 6.1 11.3 0.00 0.00 0.00 88 1008.6
20260506012639 78 175 4.3 7.8 0.00 0.00 0.00 88 1008.6
20260506012136 78 152 6.1 9.6 0.00 0.00 0.00 88 1008.4
20260506011633 78 163 7.8 12.2 0.00 0.00 0.00 88 1008.5
20260506011129 78 172 2.6 6.1 0.00 0.00 0.00 87 1008.3
20260506010628 78 166 6.1 7.8 0.00 0.00 0.00 87 1008.4
20260506010125 78 163 6.1 9.6 0.00 0.00 0.00 87 1008.4
20260506005622 78 157 7.8 11.3 0.00 0.00 0.00 86 1008.3
20260506005118 78 174 5.2 11.3 0.00 0.00 0.00 86 1008.2
20260506004615 78 169 4.3 12.2 0.00 0.00 0.00 86 1008.0
20260506004112 78 162 9.6 9.6 0.00 0.00 0.00 86 1008.0
20260506003609 78 164 7.0 13.0 0.00 0.00 0.00 85 1007.8
20260506003105 78 174 6.1 9.6 0.00 0.00 0.00 86 1007.9
20260506002600 79 163 7.0 14.8 0.00 0.00 0.00 85 1007.9
20260506002057 79 170 3.5 7.8 0.00 0.00 0.00 85 1008.0
20260506001553 79 151 8.7 10.4 0.00 0.00 0.00 85 1008.0
20260506001050 79 171 7.8 12.2 0.00 0.00 0.00 85 1008.0
20260506000547 79 184 10.4 17.4 0.00 0.00 0.00 84 1008.0
20260506000045 79 192 5.2 12.2 0.00 0.00 0.00 85 1008.1
20260505235543 79 171 5.2 11.3 0.00 0.00 0.00 84 1007.9
20260505235040 80 185 6.1 9.6 0.00 0.00 0.00 84 1007.8
20260505234536 80 181 8.7 12.2 0.00 0.00 0.00 84 1007.7
20260505234033 80 186 5.2 13.0 0.00 0.00 0.00 84 1007.6
20260505233531 80 172 6.1 12.2 0.00 0.00 0.00 84 1007.5
20260505233028 80 167 11.3 14.8 0.00 0.00 0.00 83 1007.7
20260505232526 80 170 10.4 13.9 0.00 0.00 0.00 83 1008.0
20260505232023 80 161 6.1 8.7 0.00 0.00 0.00 84 1007.7
20260505231520 80 164 6.1 10.4 0.00 0.00 0.00 83 1007.7
20260505231019 81 168 5.2 13.0 0.00 0.00 0.00 82 1007.6
20260505230516 81 170 8.7 14.8 0.00 0.00 0.00 81 1007.5
20260505230012 81 171 9.6 14.8 0.00 0.00 0.00 82 1007.7
20260505225509 81 154 5.2 14.8 0.00 0.00 0.00 82 1007.5
20260505225005 80 171 7.0 15.6 0.00 0.00 0.00 82 1007.6
20260505224502 81 155 7.8 14.8 0.00 0.00 0.00 82 1007.7
20260505223959 81 174 8.7 17.4 0.00 0.00 0.00 81 1007.6
20260505223456 81 189 8.7 13.0 0.00 0.00 0.00 81 1007.6
20260505222952 81 173 4.3 15.6 0.00 0.00 0.00 81 1007.9
20260505222449 82 180 7.8 16.5 0.00 0.00 0.00 81 1007.9
20260505221944 82 151 5.2 13.0 0.00 0.00 0.00 81 1007.7
20260505221442 82 167 9.6 13.9 0.00 0.00 0.00 80 1007.8
20260505220939 82 165 7.8 13.9 0.00 0.00 0.00 81 1007.8
20260505220436 82 170 13.9 16.5 0.00 0.00 0.00 79 1007.7
20260505215933 83 172 5.2 13.0 0.00 0.00 0.00 79 1008.1
20260505215431 83 166 10.4 13.9 0.00 0.00 0.00 80 1007.8
20260505214929 82 196 9.6 15.6 0.00 0.00 0.00 79 1007.8
20260505214427 82 169 9.6 14.8 0.00 0.00 0.00 79 1007.8
20260505213924 82 166 10.4 13.9 0.00 0.00 0.00 79 1007.9
20260505213421 82 171 8.7 13.0 0.00 0.00 0.00 80 1008.2